Time,TemperatureF,DewpointF,PressureIn,WindDirection,WindDirectionDegrees,WindSpeedMPH,WindSpeedGustMPH,Humidity,HourlyPrecipIn,Conditions,Clouds,dailyrainin,SoftwareType,DateUTC
2013-09-20 00:24:00,60.0,59.0,30.10,South,172,0.0,0.0,96,0.00,,,-99.99,,2013-09-20 04:24:00,
2013-09-20 00:54:00,59.0,58.0,30.10,South,172,0.0,0.0,96,0.00,,,-99.99,,2013-09-20 04:54:00,
2013-09-20 01:23:00,58.0,57.0,30.10,South,172,0.0,0.0,96,0.00,,,-99.99,,2013-09-20 05:23:00,
2013-09-20 01:32:00,58.0,57.0,30.10,South,172,0.0,0.0,96,0.00,,,-99.99,,2013-09-20 05:32:00,
2013-09-20 01:34:00,58.0,57.0,30.10,South,172,0.0,0.0,96,0.00,,,-99.99,,2013-09-20 05:34:00,
2013-09-20 01:53:00,58.0,57.0,30.10,South,172,0.0,0.0,96,0.00,,,-99.99,,2013-09-20 05:53:00,
2013-09-20 02:03:00,58.0,57.0,30.10,South,172,0.0,0.0,96,0.00,,,-99.99,,2013-09-20 06:03:00,
2013-09-20 02:12:00,58.0,57.0,30.10,South,172,0.0,0.0,96,0.00,,,-99.99,,2013-09-20 06:12:00,
2013-09-20 02:22:00,58.0,57.0,30.10,South,172,0.0,0.0,96,0.00,,,-99.99,,2013-09-20 06:22:00,
2013-09-20 03:23:00,56.0,55.0,30.09,South,172,0.0,0.0,95,0.00,,,-99.99,,2013-09-20 07:23:00,
2013-09-20 03:53:00,55.0,54.0,30.09,South,172,0.0,0.0,96,0.00,,,-99.99,,2013-09-20 07:53:00,
2013-09-20 04:11:00,55.0,54.0,30.09,South,172,0.0,0.0,96,0.00,,,-99.99,,2013-09-20 08:11:00,
2013-09-20 04:22:00,55.0,54.0,30.09,South,172,0.0,0.0,96,0.00,,,-99.99,,2013-09-20 08:22:00,
2013-09-20 04:52:00,55.0,54.0,30.09,South,172,0.0,0.0,98,0.00,,,-99.99,,2013-09-20 08:52:00,
2013-09-20 05:22:00,56.0,56.0,30.07,South,172,0.0,0.0,99,0.00,,,-99.99,,2013-09-20 09:22:00,
2013-09-20 05:33:00,56.0,56.0,30.07,South,172,0.0,0.0,99,0.00,,,-99.99,,2013-09-20 09:33:00,
2013-09-20 05:43:00,56.0,56.0,30.07,South,172,0.0,0.0,99,0.00,,,-99.99,,2013-09-20 09:43:00,
2013-09-20 05:53:00,56.0,56.0,30.07,South,172,0.0,0.0,99,0.00,,,-99.99,,2013-09-20 09:53:00,
2013-09-20 06:23:00,56.0,56.0,30.09,South,172,0.0,0.0,99,0.00,,,-99.99,,2013-09-20 10:23:00,
2013-09-20 06:32:00,56.0,56.0,30.09,South,172,0.0,0.0,99,0.00,,,-99.99,,2013-09-20 10:32:00,
2013-09-20 06:42:00,56.0,56.0,30.09,South,172,0.0,0.0,99,0.00,,,-99.99,,2013-09-20 10:42:00,
2013-09-20 06:53:00,56.0,56.0,30.09,South,172,0.0,0.0,99,0.00,,,-99.99,,2013-09-20 10:53:00,
2013-09-20 07:23:00,57.0,57.0,30.09,South,172,0.0,0.0,99,0.00,,,-99.99,,2013-09-20 11:23:00,
2013-09-20 07:52:00,57.0,57.0,30.09,South,172,0.0,0.0,100,0.00,,,-99.99,,2013-09-20 11:52:00,
2013-09-20 08:22:00,58.0,58.0,30.09,South,172,0.0,0.0,100,0.00,,,-99.99,,2013-09-20 12:22:00,
2013-09-20 08:32:00,58.0,58.0,30.09,South,172,0.0,0.0,100,0.00,,,-99.99,,2013-09-20 12:32:00,
2013-09-20 08:52:00,58.0,58.0,30.09,South,172,0.0,0.0,100,0.00,,,-99.99,,2013-09-20 12:52:00,
2013-09-20 09:22:00,59.0,59.0,30.06,South,172,0.0,0.0,100,0.00,,,-99.99,,2013-09-20 13:22:00,
2013-09-20 09:32:00,59.0,59.0,30.06,South,172,0.0,0.0,100,0.00,,,-99.99,,2013-09-20 13:32:00,
2013-09-20 09:53:00,59.0,59.0,30.06,South,172,0.0,0.0,100,0.00,,,-99.99,,2013-09-20 13:53:00,
2013-09-20 10:02:00,59.0,59.0,30.06,South,172,0.0,0.0,100,0.00,,,-99.99,,2013-09-20 14:02:00,
2013-09-20 10:21:00,61.0,61.0,30.06,South,172,0.0,0.0,100,0.00,,,-99.99,,2013-09-20 14:21:00,
2013-09-20 10:32:00,61.0,61.0,30.06,South,172,0.0,0.0,100,0.00,,,-99.99,,2013-09-20 14:32:00,
2013-09-20 10:52:00,64.0,64.0,30.05,SW,214,0.0,4.0,99,0.00,,,-99.99,,2013-09-20 14:52:00,
2013-09-20 11:22:00,67.0,66.0,30.05,South,178,1.0,6.0,97,0.00,,,-99.99,,2013-09-20 15:22:00,
2013-09-20 11:54:00,68.0,67.0,30.05,SW,225,2.0,8.0,97,0.00,,,-99.99,,2013-09-20 15:54:00,
2013-09-20 12:23:00,71.0,69.0,30.05,SE,145,0.0,4.0,92,0.00,,,-99.99,,2013-09-20 16:23:00,
2013-09-20 12:53:00,73.0,69.0,30.04,SSE,149,1.0,7.0,86,0.00,,,-99.99,,2013-09-20 16:53:00,
2013-09-20 13:03:00,73.0,69.0,30.04,SSE,149,1.0,7.0,86,0.00,,,-99.99,,2013-09-20 17:03:00,
2013-09-20 13:24:00,73.0,68.0,30.04,SW,222,0.0,4.0,85,0.00,,,-99.99,,2013-09-20 17:24:00,
2013-09-20 13:53:00,74.0,69.0,30.03,SSE,160,1.0,8.0,85,0.00,,,-99.99,,2013-09-20 17:53:00,
2013-09-20 14:22:00,76.0,68.0,30.02,SE,126,1.0,6.0,77,0.00,,,-99.99,,2013-09-20 18:22:00,
2013-09-20 14:52:00,76.0,69.0,30.01,East,84,0.0,5.0,79,0.00,,,-99.99,,2013-09-20 18:52:00,
2013-09-20 15:53:00,76.0,72.0,29.98,ESE,102,3.0,9.0,88,0.00,,,-99.99,,2013-09-20 19:53:00,
2013-09-20 16:22:00,76.0,70.0,29.98,ESE,118,2.0,8.0,81,0.00,,,-99.99,,2013-09-20 20:22:00,
2013-09-20 16:52:00,75.0,69.0,29.98,ESE,121,4.0,9.0,82,0.00,,,-99.99,,2013-09-20 20:52:00,
2013-09-20 17:21:00,74.0,69.0,29.98,ESE,104,4.0,9.0,84,0.00,,,-99.99,,2013-09-20 21:21:00,
2013-09-20 17:54:00,73.0,68.0,29.97,ESE,117,4.0,9.0,85,0.00,,,-99.99,,2013-09-20 21:54:00,
2013-09-20 18:24:00,73.0,69.0,29.97,SE,139,4.0,9.0,86,0.00,,,-99.99,,2013-09-20 22:24:00,
2013-09-20 18:53:00,72.0,68.0,29.96,SE,127,4.0,8.0,88,0.00,,,-99.99,,2013-09-20 22:53:00,
2013-09-20 19:22:00,71.0,68.0,29.96,SE,144,5.0,8.0,90,0.00,,,-99.99,,2013-09-20 23:22:00,
2013-09-20 19:53:00,70.0,67.0,29.94,SSE,147,4.0,9.0,91,0.00,,,-99.99,,2013-09-20 23:53:00,
2013-09-20 20:22:00,69.0,67.0,29.96,SE,134,3.0,7.0,92,0.00,,,-99.99,,2013-09-21 00:22:00,
2013-09-20 20:52:00,69.0,67.0,29.96,SSE,157,2.0,6.0,92,0.00,,,-99.99,,2013-09-21 00:52:00,
2013-09-20 21:22:00,68.0,66.0,29.96,SSE,152,1.0,7.0,92,0.00,,,-99.99,,2013-09-21 01:22:00,
2013-09-20 21:52:00,68.0,66.0,29.96,SSE,158,2.0,7.0,93,0.00,,,-99.99,,2013-09-21 01:52:00,
2013-09-20 22:02:00,68.0,66.0,29.96,SSE,158,2.0,7.0,93,0.00,,,-99.99,,2013-09-21 02:02:00,
2013-09-20 22:22:00,67.0,65.0,29.96,SE,142,3.0,8.0,94,0.00,,,-99.99,,2013-09-21 02:22:00,
2013-09-20 22:32:00,67.0,65.0,29.96,SE,142,3.0,8.0,94,0.00,,,-99.99,,2013-09-21 02:32:00,
2013-09-20 22:52:00,67.0,66.0,29.96,SSE,147,1.0,7.0,95,0.00,,,-99.99,,2013-09-21 02:52:00,
2013-09-20 23:22:00,67.0,65.0,29.96,SSE,158,0.0,5.0,94,0.00,,,-99.99,,2013-09-21 03:22:00,
2013-09-20 23:54:00,66.0,65.0,29.93,SE,144,0.0,0.0,96,0.00,,,-99.99,,2013-09-21 03:54:00,